User: anonymous   Login
Location: Unspecified
(0.0000°N, 0.0000°E)
Time: 16:38:53
(UTC+00:00)
Language:

Aussat K1 - Orbit

View from above orbital plane
View from above orbital plane
View from above satellite
View from above satellite

Ground track
Ground track

The orbit data is extracted from the following two-line orbital elements,

1 15993U 85076B   15059.64087550 -.00000270  00000-0  00000+0 0  9997
2 15993 015.0004 016.3866 0002438 247.9482 280.4614 00.99770182 78410
Epoch (UTC): 28 February 2015 15:22:51
Eccentricity: 0.0002438
inclination: 15.0004°
perigee height: 35917 km
apogee height: 35938 km
right ascension of ascending node: 16.3866°
argument of perigee: 247.9482°
revolutions per day: 0.99770182
mean anomaly at epoch: 280.4614°
orbit number at epoch: 7841

The dashed part of the orbit path shows where the satellite is in the earth's shadow,  

DLR